GFSMA_700_rhum_324.txt.gz
RH
8 17 59 62 82 89 87 86 90 94 94 94 94 88 85 79 73 86 92 89 73 48 31 43 36 76 83 79 74 42 30 9 8 9 10 11 13 14 13 13 13 13 13
7 7 9 14 39 56 78 74 88 91 92 93 94 93 93 91 87 77 73 92 76 61 68 40 39 36 54 83 71 80 41 21 17 8 9 10 11 12 14 14 13 13 13
7 7 8 8 8 12 40 55 61 82 74 82 87 91 94 98 96 93 86 67 67 98 90 66 48 54 39 72 80 86 80 70 46 20 9 9 11 11 12 13 14 14 14
9 8 8 8 9 9 8 10 19 40 59 65 90 80 85 85 94 94 96 94 78 65 87 90 76 61 62 53 71 75 89 86 59 42 13 10 10 11 11 12 12 13 13
14 14 12 11 9 9 9 10 10 9 17 23 52 78 74 87 91 94 98 98 97 81 83 85 96 93 73 57 41 54 78 84 82 64 26 12 10 11 11 11 12 12 13
11 12 13 14 15 14 12 10 9 11 10 8 19 47 88 87 88 94 96 96 94 98 92 77 89 98 79 49 39 43 58 81 93 89 62 27 12 10 12 12 12 12 13
7 7 7 8 8 10 12 14 14 13 12 12 9 9 38 65 73 91 94 99 91 99 98 96 84 83 92 73 46 32 34 61 86 84 92 80 24 12 11 12 13 13 14
6 5 4 4 4 4 5 6 8 10 14 15 13 12 8 16 19 40 85 91 94 100 96 99 82 92 100 92 75 46 28 38 61 74 84 96 96 41 16 13 14 14 14
6 5 5 4 4 4 3 3 4 4 6 10 16 18 16 13 10 20 35 51 94 98 95 100 100 99 99 96 91 93 76 38 44 56 73 81 96 98 82 36 16 15 15
9 8 7 6 6 6 5 4 4 4 4 5 10 18 20 20 18 12 21 40 57 75 94 99 99 100 97 100 97 97 98 77 40 48 52 68 71 87 97 96 63 34 19
10 9 8 7 6 6 5 5 6 5 5 5 6 9 17 24 25 20 14 24 57 99 100 95 100 97 100 97 98 96 99 98 81 54 67 62 53 55 78 91 93 99 66
12 10 9 8 8 7 6 6 6 6 6 6 6 6 9 14 22 25 25 20 23 78 98 100 98 100 99 100 98 99 100 98 97 72 60 67 54 49 61 72 99 92 93
13 12 10 10 13 15 12 9 7 6 7 8 7 7 7 8 12 19 25 27 23 23 42 93 100 99 99 99 100 99 100 100 99 94 67 54 51 43 46 67 78 82 83
14 14 12 10 17 20 17 12 8 8 7 7 8 8 8 8 8 10 15 21 25 27 26 30 99 100 100 100 99 100 100 100 99 99 82 59 55 48 48 31 60 73 81
20 18 12 11 23 26 21 15 13 11 8 6 6 7 8 8 8 8 8 11 15 22 28 26 32 96 99 100 100 100 99 100 100 100 96 79 61 68 72 57 30 60 79
24 14 12 23 32 32 29 24 22 19 14 10 6 8 8 8 8 8 7 8 9 12 20 26 32 32 66 91 100 100 100 100 99 98 100 90 49 73 76 73 49 46 76
18 14 18 30 37 35 35 33 30 27 22 17 10 13 15 16 12 11 9 7 7 8 10 20 24 32 31 28 50 99 100 98 98 97 98 100 63 62 68 73 70 67 81
22 17 14 17 26 34 40 41 34 28 22 18 11 18 26 30 27 21 18 12 8 7 8 8 18 24 31 31 28 52 100 99 100 100 100 100 98 71 69 60 64 67 72
30 16 11 10 11 18 33 38 30 23 16 12 13 31 36 39 35 34 31 25 18 11 8 8 8 14 21 29 27 64 96 99 99 100 99 100 100 98 68 75 58 62 74
30 16 14 14 20 31 37 29 20 16 14 17 41 46 46 49 46 46 46 42 35 28 17 10 9 8 12 17 27 32 100 99 100 99 97 100 100 100 92 80 62 50 76
29 20 18 24 30 28 20 17 16 18 22 39 55 53 53 57 59 60 60 52 51 44 36 22 15 15 7 11 16 20 71 100 98 99 98 100 100 99 99 93 78 62 67
34 30 33 32 27 21 18 19 28 35 45 63 62 61 64 68 72 75 76 77 78 74 57 46 27 26 17 7 10 14 18 51 98 99 99 100 97 99 99 99 92 78 74
45 43 38 32 26 23 20 24 40 49 52 71 74 76 79 82 85 83 78 77 78 80 77 65 51 41 48 16 7 10 14 14 54 97 98 97 100 100 99 99 100 85 76
49 46 41 34 28 23 22 34 49 52 52 78 84 84 82 82 88 92 93 87 83 86 79 76 71 46 49 41 20 10 9 12 14 35 71 95 100 97 100 98 99 99 81
57 50 42 35 28 22 28 45 54 52 49 73 85 81 84 85 84 90 100 99 94 77 74 83 80 69 64 64 47 23 12 12 13 14 18 62 79 98 99 98 99 99 100
60 54 46 38 31 27 35 50 54 53 47 67 82 82 87 92 94 99 100 100 98 80 86 80 78 77 75 73 71 53 25 13 10 13 12 20 65 100 99 100 99 98 84

GFSMA_700_rhum_330.txt.gz
RH
8 8 8 7 8 17 34 54 78 90 93 90 89 97 96 92 96 92 88 82 81 82 76 51 58 50 65 36 52 79 68 64 84 81 63 26 11 11 12 14 14 14 14
8 8 8 8 8 8 8 9 28 62 72 90 99 93 89 97 99 100 95 95 90 87 85 74 73 67 56 63 44 53 78 82 69 70 60 57 18 10 10 11 13 14 14
10 10 10 9 9 9 8 8 9 10 13 21 42 64 84 93 96 98 99 99 100 100 96 89 86 70 72 70 68 50 48 61 62 66 73 75 63 34 12 10 11 12 14
12 12 12 11 11 10 10 9 8 8 8 8 10 13 25 76 76 93 99 98 98 100 100 98 98 90 87 84 71 66 67 57 58 78 80 84 72 68 52 24 10 11 12
12 11 11 10 11 11 11 11 11 10 9 8 8 9 10 10 15 38 80 83 93 93 84 99 100 90 93 86 87 77 72 72 69 69 76 81 73 80 78 67 25 10 11
10 9 8 7 7 6 6 6 6 7 8 8 9 10 10 9 10 11 11 26 65 95 96 96 89 98 96 93 91 89 91 90 93 77 65 72 76 80 84 83 58 17 11
9 9 9 8 8 8 7 6 6 5 5 4 4 5 7 9 10 10 9 10 12 30 71 96 90 95 100 98 90 89 98 98 98 97 78 67 72 75 91 90 80 38 13
11 12 11 11 11 10 9 8 7 6 6 5 4 4 4 3 4 6 9 10 9 10 14 40 77 99 100 100 97 90 94 96 98 100 95 78 78 70 72 92 91 85 57
15 15 14 14 12 9 7 6 5 5 4 3 3 3 3 3 3 3 3 5 9 11 11 12 21 81 100 100 99 99 98 99 91 99 99 99 86 76 68 79 76 88 84
19 18 17 15 12 9 6 5 4 4 4 3 3 2 2 2 2 3 2 2 3 5 10 12 12 23 82 100 100 99 92 100 95 90 95 100 98 93 76 75 64 59 79
24 23 22 20 16 11 9 8 7 6 5 4 3 3 2 2 2 2 2 2 2 2 3 7 13 15 17 35 77 96 100 99 85 100 100 98 98 99 91 81 76 65 69
32 31 29 25 19 18 16 13 10 8 7 6 5 4 3 3 2 2 2 1 2 1 2 2 6 12 17 20 24 65 99 98 96 100 100 96 97 97 100 90 78 74 73
37 37 36 31 26 25 22 19 14 12 10 8 7 6 5 4 3 3 2 2 2 1 1 1 2 4 13 20 21 26 74 100 93 100 99 98 96 100 99 100 96 82 75
42 49 46 43 44 37 29 28 20 17 12 9 8 8 8 7 6 5 4 3 2 2 2 1 1 1 2 11 20 35 29 63 99 95 99 100 98 97 100 96 100 98 74
55 63 61 52 49 50 41 39 36 28 14 8 7 7 8 9 10 10 9 7 5 3 2 2 2 1 1 2 9 25 96 97 76 99 100 100 98 100 100 99 100 99 99
62 64 68 63 54 60 54 45 48 37 18 8 6 7 8 6 6 5 5 6 9 8 6 4 3 2 1 1 2 4 39 94 99 100 100 100 100 100 100 100 99 100 100
47 52 57 61 60 68 61 55 55 51 23 9 7 8 9 7 7 7 6 6 6 7 7 6 6 4 3 2 1 2 3 43 50 69 94 100 100 100 100 100 99 100 99
38 48 55 61 71 67 68 66 65 62 30 12 9 9 11 10 9 10 10 9 11 13 11 7 6 6 5 4 2 2 2 3 18 63 66 94 100 99 100 100 100 99 100
40 49 58 49 44 56 77 82 82 60 38 18 12 12 12 11 9 11 11 11 11 13 13 11 7 7 8 8 4 4 3 3 3 8 48 42 90 100 100 100 100 100 100
48 59 62 63 75 89 96 93 74 56 35 21 16 14 12 14 14 15 16 14 12 10 11 17 13 18 26 26 19 7 4 5 4 4 4 25 24 78 100 100 100 100 100
70 80 82 87 91 96 96 79 65 49 35 26 22 19 19 22 22 21 16 14 13 22 45 58 48 40 40 41 42 31 19 10 7 8 4 4 10 20 74 99 100 99 100
73 80 86 89 94 88 78 71 61 48 41 34 27 27 28 26 23 16 13 16 33 54 70 72 68 62 48 58 59 67 48 26 11 12 22 6 5 5 8 44 93 100 99
73 81 89 93 91 82 75 70 60 51 46 42 36 34 30 27 22 18 15 27 43 58 78 80 84 69 68 65 72 69 68 51 32 25 31 16 8 5 5 9 32 96 100
77 83 87 92 94 95 81 69 63 60 52 43 41 37 36 30 24 21 25 37 49 60 75 80 90 81 85 75 94 93 95 90 60 43 62 51 26 9 5 5 7 34 77
81 85 87 88 86 78 78 74 70 62 52 45 41 43 41 34 26 26 44 51 50 60 72 81 85 85 84 81 100 100 100 100 93 53 64 62 37 29 12 5 6 8 20
73 82 83 84 80 69 70 72 69 61 48 43 40 45 43 34 29 36 78 82 51 62 79 76 80 85 89 92 99 100 100 100 100 84 48 80 54 70 38 13 6 6 6

GFSMA_700_rhum_333.txt.gz
RH
9 9 8 8 8 8 10 20 46 68 83 88 87 95 100 99 94 87 88 87 86 84 82 78 67 58 65 69 42 56 73 74 63 72 86 80 66 45 12 12 13 14 14
9 9 8 8 8 9 9 9 9 11 15 40 84 96 95 97 99 100 94 92 95 94 91 88 84 72 73 69 70 66 48 70 83 78 73 74 64 67 40 13 11 12 14
11 11 11 10 10 9 9 9 9 9 10 10 16 31 43 48 85 91 97 100 98 99 98 89 90 90 77 72 73 80 82 58 61 83 81 75 71 85 66 54 20 11 12
12 12 12 12 12 12 11 11 11 10 9 9 10 11 11 11 15 26 78 97 95 100 97 100 92 97 92 82 70 71 84 86 79 59 55 66 75 79 79 65 64 29 12
13 12 12 11 11 10 10 10 10 10 10 10 11 11 10 10 10 10 10 42 78 84 94 99 99 97 100 92 91 85 80 80 84 95 86 70 80 80 78 84 75 64 44
13 12 11 10 9 8 7 7 7 6 6 6 6 6 7 9 10 10 10 9 10 19 63 85 80 96 95 100 99 89 91 83 80 80 94 94 80 82 73 75 79 86 74
12 11 10 10 9 10 10 10 10 10 9 9 8 8 7 5 4 5 7 10 10 10 10 12 43 70 94 100 94 83 81 91 89 89 91 98 97 88 81 78 74 80 87
13 12 12 12 12 13 13 12 12 12 11 10 9 8 8 6 6 5 4 4 5 8 10 10 10 20 52 97 97 96 90 98 91 92 99 98 94 98 89 83 77 64 83
15 15 15 16 15 15 14 14 14 13 11 10 8 7 6 6 6 4 4 3 3 3 4 6 11 11 11 27 57 83 78 93 96 98 95 99 98 100 99 91 88 73 57
18 19 19 18 18 18 17 16 16 14 11 9 8 6 6 5 5 6 4 3 2 3 3 3 4 7 12 13 17 35 58 100 98 86 91 100 96 100 97 97 98 95 71
24 22 21 21 21 21 21 20 18 14 9 8 7 6 6 5 5 5 5 4 3 2 2 2 3 3 5 10 14 16 55 82 86 100 96 98 95 92 93 100 100 99 95
29 28 28 29 28 27 25 21 14 11 9 9 8 8 7 6 6 5 4 4 4 3 2 2 2 2 3 3 7 12 15 51 94 92 100 93 86 98 92 97 98 100 97
38 37 36 34 33 31 25 18 18 18 18 16 15 12 10 9 8 7 5 4 4 4 3 2 2 2 1 2 3 4 10 15 24 88 98 99 99 97 88 91 100 100 98
41 40 40 39 36 28 28 29 29 27 25 27 24 21 19 16 13 10 7 6 4 4 3 3 2 2 2 1 1 2 3 7 15 18 32 68 96 94 99 98 99 99 100
44 43 36 28 28 33 41 45 41 37 39 39 33 29 27 21 12 9 8 7 6 5 4 3 3 3 2 2 2 1 1 2 6 14 19 25 53 87 100 89 96 100 98
37 28 30 31 31 33 38 43 45 43 42 52 46 40 36 26 10 6 7 8 6 6 6 6 5 4 3 2 2 2 2 1 1 4 12 19 23 59 100 100 99 83 91
34 34 35 35 33 30 29 35 46 52 56 61 61 55 50 35 12 7 8 9 9 10 12 11 8 6 4 3 3 2 2 2 1 1 2 11 20 24 60 99 99 96 100
44 40 34 31 30 30 31 33 43 43 41 41 52 63 62 48 19 10 10 12 13 15 15 13 9 7 5 4 4 3 3 2 2 2 1 2 8 58 41 67 100 96 90
41 37 32 29 28 29 36 47 49 42 47 58 69 76 72 52 26 13 13 13 13 14 13 12 9 8 7 6 5 4 3 3 3 2 2 2 2 5 65 92 94 100 99
32 28 32 35 40 44 52 62 69 73 75 86 92 84 67 46 26 18 17 16 14 12 11 11 9 8 8 8 9 12 6 5 4 4 3 3 2 2 3 51 85 82 100
35 42 42 42 47 53 67 81 88 90 89 89 88 76 56 37 28 27 25 16 14 13 13 13 11 9 9 11 30 45 46 32 6 10 7 6 5 4 3 2 21 57 79
50 48 47 52 57 60 72 88 98 93 89 84 74 58 46 41 37 35 28 27 24 21 18 17 15 13 13 39 55 64 64 62 34 16 28 17 18 12 8 4 3 7 29
56 54 50 53 60 69 77 86 96 96 88 80 67 56 48 44 41 33 27 26 21 21 22 19 19 20 37 56 75 73 71 84 73 44 51 34 29 21 19 12 7 4 4
59 56 53 53 59 72 82 90 94 97 94 89 75 62 54 40 34 34 25 18 17 21 24 20 33 44 51 68 81 94 100 100 95 74 67 47 31 31 33 31 19 11 6
54 56 57 55 56 62 80 90 93 93 88 83 76 64 55 44 31 27 26 25 27 30 26 21 38 56 70 80 100 100 99 100 97 91 67 84 37 47 50 40 32 26 16
46 52 55 59 59 60 67 81 86 86 83 78 69 60 54 41 30 27 32 40 40 32 27 41 47 58 95 98 100 100 100 100 97 86 65 95 65 62 57 42 39 34 29

GFSMA_700_rhum_336.txt.gz
RH
10 9 9 8 8 8 8 8 10 25 51 72 90 92 97 100 100 98 95 90 67 70 71 64 43 39 42 69 72 67 69 83 82 79 87 82 82 79 66 44 17 12 14
10 9 9 8 8 8 8 9 9 9 9 12 20 33 58 79 95 100 100 99 93 89 87 85 82 77 72 60 70 74 75 69 76 82 84 81 77 83 85 73 55 18 11
13 12 12 11 11 10 10 10 9 9 9 10 10 10 10 20 55 72 90 96 100 100 98 94 94 89 84 81 73 70 74 80 77 74 86 94 91 82 81 88 93 59 30
13 13 13 12 12 12 12 12 12 12 11 11 11 10 10 10 10 10 12 13 59 95 100 100 93 89 95 87 91 84 78 76 86 86 83 80 76 82 80 81 94 88 66
14 14 14 13 12 12 11 11 11 10 10 9 9 9 9 10 10 10 10 9 8 10 49 99 96 96 92 96 85 91 97 81 79 90 91 90 86 77 71 84 83 87 84
16 15 14 13 12 11 10 10 9 8 8 8 8 8 8 7 7 6 6 8 10 9 8 14 63 81 76 84 96 96 89 97 96 92 94 86 95 97 82 81 82 76 85
17 15 14 13 12 11 10 10 10 11 12 12 12 11 11 10 10 9 8 7 5 5 8 9 9 10 37 80 88 85 83 94 100 100 92 97 99 90 100 96 90 87 73
17 15 14 14 14 13 14 15 15 14 14 14 14 13 12 11 10 9 8 8 7 6 5 4 6 9 10 10 29 63 72 83 98 98 98 100 98 98 92 98 89 88 88
17 16 16 16 16 16 17 17 18 18 18 18 17 16 15 14 12 9 7 6 6 5 5 5 4 4 5 9 10 12 32 80 98 98 85 88 100 93 99 100 95 97 98
19 18 18 18 19 20 20 20 22 22 22 22 21 19 17 14 14 12 9 6 5 4 4 4 4 4 3 4 6 9 10 19 61 98 99 86 89 100 100 98 96 100 96
21 21 21 22 23 23 22 23 26 26 26 25 21 17 13 11 10 10 10 9 7 5 4 3 3 3 3 3 3 3 7 11 11 26 64 78 68 73 90 95 91 100 98
24 25 26 27 26 26 27 28 30 30 30 23 16 13 10 9 8 8 8 8 8 7 6 4 3 2 2 2 2 3 3 4 10 12 14 50 76 94 83 91 95 99 99
33 34 35 34 33 33 33 34 36 34 21 13 10 8 8 8 8 8 7 7 7 6 6 6 5 4 3 2 2 2 2 3 3 6 13 16 45 80 100 97 85 96 99
46 46 44 42 41 40 39 39 36 18 11 10 10 11 12 14 13 13 12 11 8 7 6 6 5 5 4 4 3 2 2 2 2 3 4 10 17 53 76 100 96 90 96
52 50 48 45 43 42 38 26 15 13 16 17 16 16 18 21 21 23 25 24 21 14 11 8 7 6 5 4 4 3 3 2 2 1 2 3 6 16 48 70 100 94 97
56 53 49 45 41 35 19 15 16 19 20 21 22 24 28 32 36 38 37 35 32 24 17 11 9 8 7 6 5 4 4 3 2 2 2 1 2 4 8 18 77 88 99
55 50 42 35 23 16 15 16 18 18 20 23 24 26 28 40 48 53 55 52 46 33 17 10 10 10 10 11 10 9 6 4 3 3 2 2 1 1 2 5 11 35 61
45 33 24 18 18 21 24 26 25 24 23 23 25 27 35 42 39 39 48 62 61 44 19 9 10 11 14 16 15 14 10 7 5 3 2 2 2 2 1 1 2 6 14
25 19 19 24 27 31 31 25 20 20 23 25 27 34 40 37 39 59 71 76 68 48 23 13 11 12 17 20 18 17 12 9 6 4 3 2 2 2 2 2 1 1 3
18 19 27 35 37 32 27 27 31 32 34 37 44 51 56 61 63 81 87 78 61 39 24 18 14 15 16 17 16 13 10 8 6 5 4 4 3 2 2 2 2 1 1
22 28 30 29 28 29 36 36 36 36 37 37 54 65 69 75 79 86 82 68 48 35 27 24 18 14 14 14 13 10 9 9 8 6 6 6 6 4 3 3 3 2 2
22 24 27 30 31 36 42 41 40 44 49 50 56 70 78 83 82 80 69 54 43 35 31 26 19 14 14 14 12 12 12 12 10 22 41 27 25 22 14 8 8 8 6
17 20 27 34 40 48 51 48 47 51 57 63 68 74 80 83 81 70 59 51 45 43 37 27 20 16 16 16 16 17 15 23 60 73 91 49 34 35 35 30 18 15 15
20 19 20 25 35 43 52 54 53 53 58 65 73 79 82 84 86 74 62 56 50 39 30 24 22 19 18 16 24 28 74 73 75 84 91 90 53 56 43 45 34 23 22
32 25 21 21 23 29 43 52 56 57 58 65 75 81 84 81 80 80 70 59 47 39 27 24 22 21 22 30 32 63 72 82 85 91 91 86 80 69 55 53 40 36 32
45 40 32 24 23 24 29 43 56 62 61 63 70 77 80 80 78 72 68 62 50 34 28 27 24 27 34 48 66 92 100 100 100 98 76 79 72 78 66 39 45 41 36

GFSMA_700_rhum_339.txt.gz
RH
10 9 9 8 8 8 8 8 8 8 8 16 37 69 88 93 99 99 100 96 95 89 44 46 43 25 23 21 44 72 72 75 86 87 86 86 88 87 90 78 65 52 23
11 10 10 9 9 8 8 8 7 7 7 8 8 9 15 34 48 74 84 94 100 100 94 72 74 75 71 67 72 59 74 76 75 87 88 84 86 86 83 85 87 82 65
14 14 14 13 12 12 11 11 10 10 10 9 8 8 8 8 8 9 12 22 59 91 95 95 94 92 88 84 83 86 73 79 77 77 79 81 87 90 89 83 85 90 86
16 15 14 13 13 13 13 13 12 12 12 12 12 11 11 10 10 8 8 8 9 10 21 57 96 98 90 94 95 93 92 84 84 76 78 80 80 91 96 92 86 85 90
16 15 15 15 14 14 13 13 12 12 11 11 10 10 9 9 9 9 9 9 9 9 8 7 11 50 81 92 84 89 95 100 99 91 82 84 83 88 88 90 92 88 90
17 17 16 16 15 14 13 12 12 11 10 9 9 9 9 9 9 9 9 8 7 6 7 8 9 8 9 32 90 89 93 90 95 100 100 87 80 85 85 91 86 85 91
19 18 18 17 16 15 13 12 11 11 11 11 11 12 13 13 13 12 12 11 11 10 9 8 6 6 8 8 11 39 57 56 84 98 98 100 97 87 91 90 87 89 90
21 21 20 18 16 15 14 14 14 14 14 14 15 15 16 17 16 16 15 14 12 11 10 9 8 8 6 5 8 8 9 22 43 77 83 94 100 97 95 94 99 93 86
22 22 21 19 18 17 16 17 17 18 18 18 18 20 21 21 20 19 18 16 14 12 11 9 8 7 6 6 5 5 8 9 10 21 45 66 97 99 100 100 99 97 100
25 24 22 21 19 19 19 20 20 20 20 20 21 23 26 26 25 23 20 18 17 14 11 9 8 7 6 6 5 5 4 5 8 9 11 20 52 85 97 100 99 96 99
29 27 25 23 22 21 22 23 23 23 23 24 25 28 29 28 25 22 20 18 16 14 12 10 8 6 6 5 5 5 4 4 4 5 10 11 13 38 61 100 99 100 99
31 29 27 25 24 25 26 26 27 27 27 27 29 30 31 28 22 19 18 16 15 13 12 11 9 8 6 5 4 4 4 3 3 3 4 6 11 13 29 75 94 98 99
34 31 29 28 29 29 31 32 32 31 31 32 32 34 31 22 16 12 10 10 10 9 9 8 8 8 7 6 6 5 4 3 3 2 2 3 4 8 12 15 50 70 61
34 33 34 34 36 37 38 37 36 36 37 38 38 34 20 13 8 7 6 6 5 5 5 6 6 6 6 6 6 6 5 4 3 3 2 2 2 3 4 10 13 29 94
38 41 41 43 44 44 43 42 41 40 39 39 35 18 11 7 6 7 7 8 8 6 6 7 8 8 7 7 7 6 6 5 5 4 3 2 2 2 2 2 5 12 17
44 45 48 50 50 49 47 45 43 41 38 24 12 9 8 8 9 10 11 12 13 14 10 15 15 16 15 12 11 9 7 6 5 5 4 4 3 2 2 2 2 2 8
54 55 57 55 55 51 47 44 38 26 13 10 9 10 11 12 12 16 18 19 20 22 21 19 24 26 28 30 24 18 14 10 8 7 6 5 4 4 3 2 2 2 2
63 62 61 60 56 51 42 30 14 9 9 11 13 14 14 14 14 17 20 24 28 32 30 24 27 27 40 44 39 29 18 15 14 12 10 9 8 6 4 4 3 2 2
66 66 62 58 49 31 14 8 8 10 13 15 15 16 16 19 21 24 26 28 36 40 40 47 50 57 58 55 45 29 16 14 15 16 16 15 12 9 6 4 3 3 2
74 63 43 30 14 7 7 8 10 13 14 14 16 18 20 23 24 27 39 50 58 62 67 80 80 73 63 49 31 20 15 15 19 21 21 16 12 9 6 5 4 3 3
44 28 13 7 8 9 10 11 14 16 17 18 22 24 23 24 27 27 39 57 71 80 85 84 75 66 49 34 26 21 15 15 21 24 21 16 12 9 6 5 4 4 4
8 8 11 13 13 14 14 14 16 18 20 23 27 32 29 26 30 37 45 67 80 83 83 86 69 54 43 34 29 21 16 16 21 21 17 14 11 8 7 6 6 7 8
17 20 21 22 21 20 19 17 17 18 19 24 32 37 36 31 35 49 54 66 77 82 80 76 59 48 42 36 32 22 17 20 21 19 16 14 14 26 25 21 37 32 18
30 30 30 31 29 29 28 24 20 18 19 23 32 40 44 41 37 51 64 71 74 79 78 65 58 53 46 36 29 21 22 25 25 36 44 48 39 62 61 73 69 62 61
33 32 34 33 32 33 36 35 28 22 20 21 26 34 43 46 44 49 70 75 75 74 76 75 67 57 54 46 47 87 96 93 56 31 41 60 67 82 65 59 49 42 42
31 32 30 31 32 34 43 44 39 29 24 22 22 26 35 43 49 54 68 77 79 73 71 65 62 57 46 38 36 35 37 73 73 89 79 88 76 94 86 47 47 45 41

GFSMA_700_rhum_342.txt.gz
RH
10 10 10 10 9 9 8 8 8 7 7 8 8 10 26 62 79 87 90 90 98 94 90 88 35 26 28 22 19 21 54 72 70 84 94 99 96 92 83 85 89 85 74
12 12 11 10 10 9 9 8 8 8 8 7 7 7 7 7 9 18 44 62 75 78 88 96 92 72 54 56 54 53 65 57 67 75 80 89 90 92 91 90 88 91 86
14 14 12 12 12 12 11 11 11 11 10 10 10 9 8 8 7 7 7 7 7 12 40 70 88 89 89 85 82 80 83 86 70 69 72 75 77 85 88 90 90 88 86
16 15 15 15 15 14 13 13 12 12 12 12 12 12 11 11 10 10 9 9 8 7 7 7 10 25 58 85 84 88 89 94 94 91 80 74 73 78 77 81 94 94 87
18 18 17 16 15 14 14 14 14 14 13 12 12 11 11 10 10 10 9 9 9 9 9 9 9 8 7 8 35 66 86 81 91 96 99 97 83 77 80 80 85 90 94
20 19 17 16 16 16 15 15 14 14 13 12 11 10 10 9 9 9 9 9 9 9 8 8 7 7 7 8 8 8 14 34 69 85 89 95 96 100 91 79 84 85 89
22 20 18 18 17 17 16 16 15 14 13 12 11 11 10 10 11 12 13 13 13 13 12 12 11 10 9 8 6 7 8 8 13 66 85 84 90 76 94 100 86 86 88
24 22 21 21 20 19 19 18 16 14 14 13 13 13 14 14 16 17 17 18 18 17 17 16 15 13 12 11 10 9 7 6 8 8 25 61 74 83 87 95 95 97 91
26 25 24 23 22 21 20 19 17 16 16 16 17 17 18 18 18 19 19 22 21 22 21 20 18 17 15 13 11 10 9 8 7 6 8 9 12 36 93 100 95 79 100
28 28 27 26 25 24 23 21 20 19 19 20 20 21 22 22 23 24 25 26 26 24 22 21 18 17 16 15 14 12 9 8 8 8 6 6 9 10 13 50 91 81 96
32 31 30 30 29 27 26 24 22 22 22 23 23 25 26 27 28 28 28 28 27 24 22 20 19 17 16 14 13 13 11 10 8 7 7 6 5 6 10 11 15 48 100
37 36 35 34 32 30 28 27 25 25 25 25 27 29 30 31 31 32 31 29 26 24 21 19 17 15 15 14 13 12 10 9 9 8 6 6 6 5 5 6 11 13 32
40 40 39 38 36 34 32 30 28 28 29 30 32 34 36 36 35 34 32 28 25 22 20 17 12 11 10 10 11 9 10 9 8 7 6 6 5 5 4 4 4 7 12
45 44 43 41 39 37 35 33 33 33 34 36 38 38 38 37 35 32 27 22 19 15 12 10 8 8 7 7 7 7 7 7 7 8 7 6 5 5 4 4 4 4 4
48 47 45 43 41 39 38 37 38 41 42 43 42 40 38 36 30 18 11 8 7 7 7 7 5 5 5 5 5 6 6 6 6 6 7 7 6 6 5 4 4 3 3
49 48 45 44 43 42 41 45 48 49 47 44 41 39 35 20 10 7 6 5 4 4 4 6 6 4 5 4 5 6 6 6 7 8 8 7 6 6 6 5 4 4 3
48 46 45 46 46 48 54 57 55 51 44 43 43 29 12 7 5 4 4 5 6 7 5 5 5 6 7 8 7 7 8 8 9 10 10 11 10 8 6 5 5 5 4
48 47 49 51 54 63 68 63 59 57 50 46 21 7 5 4 5 5 6 7 8 9 10 8 10 10 12 15 15 13 14 15 17 21 24 23 18 16 14 10 7 5 4
49 53 56 62 71 75 68 64 60 53 39 16 5 5 6 6 6 7 8 10 13 15 17 16 15 19 21 27 28 29 32 34 34 35 38 30 23 21 18 17 14 11 7
56 67 76 81 81 73 65 58 44 21 6 6 7 8 8 8 8 9 11 13 16 18 21 21 21 30 38 40 47 48 55 57 47 41 34 24 18 19 21 21 18 14 10
79 84 89 82 69 62 42 20 7 8 10 11 12 11 11 10 10 11 13 15 18 20 22 26 29 42 48 55 55 66 67 57 47 32 23 19 18 21 26 24 19 14 10
94 85 74 59 35 15 8 11 15 16 16 15 15 14 14 13 13 17 24 31 34 30 25 32 34 41 48 54 66 70 61 46 40 34 24 18 18 26 28 24 20 14 10
60 42 20 10 11 15 18 20 22 23 20 18 18 18 17 17 16 18 23 32 34 31 38 62 69 67 69 73 74 63 54 50 43 35 24 19 21 27 28 24 18 13 11
12 13 18 21 22 21 23 25 28 27 23 20 20 20 20 20 20 19 22 28 34 39 37 38 57 68 78 80 79 67 61 57 48 44 38 27 28 29 25 20 16 13 16
25 25 25 23 22 21 24 28 30 27 23 22 21 23 25 26 26 20 21 23 29 34 40 40 53 74 73 77 98 100 100 100 100 82 38 33 31 29 32 30 27 35 29
30 32 32 32 32 30 30 31 32 31 26 24 25 25 29 33 32 24 23 25 28 30 43 48 58 72 79 78 79 73 80 88 54 38 36 49 58 93 88 56 57 43 37